星链-32643 (STARLINK-32643)

导读

STARLINK-32643是美国SpaceX公司于2024年12月5日发射的星链(Starlink)第二代低轨通信卫星,属于星链全球宽带互联网星座的组成部分。该卫星搭载增强型相控阵天线与激光星间链路,采用氪离子霍尔推进器,具备自主避碰能力,运行于近地轨道,可提供高速低延迟的宽带服务,退役后将主动离轨在大气层完全烧毁,服务全球互联网覆盖。

基本信息
目录编号:
62233
目录名称:
STARLINK-32643
国际标识:
2024-231R
轨道中心:
EARTH
卫星名称:
星链-32643
卫星全名:
星链-32643 (STARLINK-32643)
卫星状态:
在轨 (已飞行559 天)
发射日期:
2024-12-05 UTC
国别 :
美国 (US)
星等 :
--
轨道信息
数据来源 国际轨道数据
星历时间: 2026-06-17T14:42:22+0800
12小时前
查看轨道信息
半长轴: 6848.848km
偏心率: 0.0001475
轨道倾角: 53.161°
近地点辐角 83.978°
升交点赤经 103.727°
平近点角 276.139°
近地点: 469.7km
远地点: 471.722km
周期: 94.013分钟
每日圈数: 15.317099
详细信息
固有亮度:
5
最大亮度:
2.5
卫星平台:
Starlink V1.0
覆盖范围:
全球
运营商:
太空探索技术公司
运营商所在国:
美国
制造商(研发单位):
太空探索技术公司
制造商所在国:
美国
使用方式:
暂无
卫星简介
Starlink 计划是 SpaceX 推出的全球卫星互联网项目,通过发射低轨道卫星,为全球尤其是偏远地区提供高速、低延迟的互联网服务。自 2019 年起,Starlink 已部署数千颗卫星,旨在缩小全球数字鸿沟,推动互联网普及。该项目还为军事、航空等行业提供通信支持,带来广泛经济效益。
2D轨道图
3D轨道图
轨道高度分析图
轨道倾角分析图
轨道综合分析图
查看轨道综合分析图